Location: Unspecified
(0.0000°N, 0.0000°E)
Time: 09:34:35
(UTC+00:00)

A-11 Canister half - Pass Details

Date: 09 August 2021
Orbit: 1515 x 1685 km, 47.2° (Epoch: 27 September)

Event Time Altitude Azimuth Distance (km) Brightness Sun altitude
Rises 09:25:34 0° 189° (S) 4,664 11.3 47.5°
Reaches altitude 10° 09:30:22 10° 168° (SSE) 3,674 11.0 48.6°
Maximum altitude 09:35:26 16° 134° (SE) 3,236 11.1 49.8°
Drops below altitude 10° 09:40:29 10° 100° (E) 3,685 11.7 50.9°
Sets 09:45:14 0° 79° (E) 4,685 12.1 52.0°
